Overview Statistics Trail Chart Weather Telemetry Raw packets
 

This is the latest recevied weather packets stored in our database for station/object KF0RZX-13. If no packets are shown the sender has not sent any weather packets the latest 10 day(s).

<< 2 3 4 5 6 7 8 >>
Time Temp. Humidity Pressure Rain* Wind** Luminosity Snow
1788199574 28.89° C 25% 1021.7 hPa 0 mm - - -
1788197756 27.78° C 25% 1021.7 hPa 0 mm - - -
1788195951 27.78° C 25% 1021.7 hPa 0 mm - - -
1788194146 26.11° C 30% 1022 hPa 0 mm - - -
1788192341 26.11° C 30% 1021.7 hPa 0 mm - - -
1788190537 23.89° C 36% 1021.3 hPa 0 mm - - -
1788188732 22.22° C 43% 1021.7 hPa 0 mm - - -
1788186926 22.22° C 43% 1021.3 hPa 0 mm - - -
1788185124 20° C 53% 1021.3 hPa 0 mm - - -
1788183317 13.89° C 82% 1021 hPa 0 mm - - -
1788179691 13.89° C 77% 1020 hPa 0 mm - - -
1788177886 13.89° C 82% 1020 hPa 0 mm - - -
1788176081 16.11° C 72% 1019.6 hPa 0 mm - - -
1788174276 15° C 77% 1019.6 hPa 0 mm - - -
1788170646 15° C 77% 1019.3 hPa 0 mm - - -
1788168841 16.11° C 72% 1019 hPa 0 mm - - -
1788167036 16.11° C 68% 1018.6 hPa 0 mm - - -
1788165231 15° C 77% 1019 hPa 0 mm - - -
1788163426 15° C 77% 1019 hPa 0 mm - - -
1788161621 16.11° C 72% 1019.3 hPa 0 mm - - -
1788159816 17.78° C 60% 1019.3 hPa 0 mm - - -
1788157996 17.78° C 60% 1019.3 hPa 0 mm - - -
1788156191 17.22° C 63% 1019.3 hPa 0 mm - - -
1788154386 17.78° C 60% 1019.6 hPa 0 mm - - -
1788152581 18.89° C 56% 1019.6 hPa 0 mm - - -

* Rain latest hour (hover to see other rain measurements)
** Current wind speed in m/s (hover to see current wind gust speed)